Location: Allentsteig
(48.6833°N, 15.3167°E)
Time: 01:47:07
(UTC+00:00)

Cosmos 2151 Rocket - Pass Details

Date: 18 September 2020
Orbit: 617 x 642 km, 82.5° (Epoch: 31 October)

Event Time Altitude Azimuth Distance (km) Brightness Sun altitude
Rises 18:44:19 0° 183° (S) 2,900 6.8 -16.9°
Reaches altitude 10° 18:46:32 10° 182° (S) 2,002 6.0 -17.2°
Maximum altitude 18:50:57 76° 98° (E) 658 3.5 -17.9°
Drops below altitude 10° 18:55:28 10° 13° (NNE) 2,035 6.3 -18.5°
Sets 18:57:44 0° 12° (NNE) 2,952 7.2 -18.9°
